This demonstration page uses our WeatherBlox Daily Observations layout. Learn more.

Left ArrowRight Arrow

39.01783, -85.05884

Hourly Observations for December 29, 2016

Temp ( °F °C ) Dew Point ( °F °C ) Humidity (%) Winds ( mph kmh ) Pressure ( in mb ) Visibility ( mi km ) Precip ( " mm )
12:52 am 00:52 Cloudy 43 6.1 40 4.4 89 89 W 7 11 29.81 1010 10 16 N/A
1:52 am 01:52 Cloudy 42 5.6 40 4.4 92 92 W 9 15 29.81 1010 10 16 N/A
2:52 am 02:52 Mostly Cloudy 41 5 38 3.3 89 89 W 12 19 29.83 1010 10 16 N/A
3:33 am 03:33 Mostly Cloudy 41 5 37 2.8 86 86 W 10 17 29.85 1011 10 16 N/A
3:52 am 03:52 Cloudy 41 5 37 2.8 86 86 W 13 20 29.83 1010 10 16 N/A
4:52 am 04:52 Cloudy 40 4.4 34 1.1 79 79 W 15 24 29.85 1011 10 16 N/A
5:52 am 05:52 Mostly Cloudy 38 3.3 30 -1.1 73 73 W 14 22 29.87 1012 10 16 N/A
6:52 am 06:52 Partly Cloudy 37 2.8 28 -2.2 70 70 WSW 8 13 29.88 1012 10 16 N/A
7:52 am 07:52 Clear 35 1.7 28 -2.2 76 76 WSW 8 13 29.89 1012 10 16 N/A
8:52 am 08:52 Sunny 36 2.2 28 -2.2 73 73 SW 10 17 29.91 1013 10 16 N/A
9:52 am 09:52 Mostly Sunny 38 3.3 28 -2.2 68 68 W 17 28 29.93 1013 10 16 N/A
10:52 am 10:52 Mostly Sunny 40 4.4 27 -2.8 60 60 W 16 26 29.93 1014 10 16 N/A
11:52 am 11:52 Partly Cloudy 41 5 27 -2.8 57 57 W 20 31 29.92 1013 10 16 N/A
12:52 pm 12:52 Mostly Sunny 43 6.1 26 -3.3 51 51 WNW 21 33 29.91 1013 10 16 N/A
1:52 pm 13:52 Mostly Sunny 44 6.7 25 -3.9 47 47 W 16 26 29.91 1013 10 16 N/A
2:52 pm 14:52 Mostly Sunny 44 6.7 25 -3.9 47 47 W 18 30 29.90 1013 10 16 N/A
3:52 pm 15:52 Mostly Cloudy 42 5.6 25 -3.9 51 51 W 23 37 29.92 1013 10 16 N/A
4:52 pm 16:52 Cloudy 40 4.4 24 -4.4 53 53 W 24 39 29.94 1014 10 16 N/A
5:52 pm 17:52 Windy with Snow Likely 38 3.3 26 -3.3 62 62 WNW 30 48 29.97 1015 6 10 N/A
6:52 pm 18:52 Windy with Snow Likely 38 3.3 23 -5 55 55 W 26 43 29.98 1015 10 16 N/A
7:52 pm 19:52 Cloudy with Light Snow 35 1.7 28 -2.2 76 76 NW 15 24 30.00 1016 9 14 N/A
8:16 pm 20:16 Cloudy with Light Snow 34 1 28 -2 81 81 WNW 18 30 30.03 1017 3 5 N/A
8:24 pm 20:24 Cloudy with Light Snow 34 1 28 -2 81 81 W 15 24 30.00 1016 9 14 N/A
8:52 pm 20:52 Cloudy with Light Snow 34 1.1 28 -2.2 79 79 W 15 24 29.99 1016 10 16 N/A
9:22 pm 21:22 Cloudy with Light Snow 34 1.1 28 -2.2 79 79 NW 18 30 30.00 1016 2 3 N/A
9:25 pm 21:25 Cloudy with Light Snow 33 0.6 29 -1.7 85 85 WNW 18 30 30.00 1016 1 1 N/A
9:34 pm 21:34 Cloudy with Light Snow 32 undefined 30 -1 93 93 WNW 16 26 30.06 1018 1 1 N/A
9:39 pm 21:39 Cloudy with Light Snow 32 undefined 31 -0.6 96 96 WNW 18 30 30.06 1018 4 6 0.02 0.51
9:49 pm 21:49 Windy with Snow Likely 34 1 30 -1 87 87 WNW 22 35 30.03 1017 2 3 0.02 0.51
9:52 pm 21:52 Windy with Snow Likely 32 undefined 30 -1.1 92 92 WNW 21 33 30.00 1016 3 4 0.02 0.51
9:58 pm 21:58 Cloudy with Light Snow 32 undefined 30 -1 93 93 WNW 18 30 30.03 1017 5 8 N/A
10:13 pm 22:13 Cloudy with Light Snow 32 undefined 30 -1.1 92 92 WNW 15 24 30.03 1017 9 14 N/A
10:52 pm 22:52 Cloudy 33 0.6 29 -1.7 85 85 WNW 16 26 30.00 1016 10 16 N/A
11:52 pm 23:52 Cloudy 34 1.1 25 -3.9 70 70 WNW 18 30 30.00 1016 10 16 N/A

Powered by AerisWeather